Weather Roundup
Issued by NWS

Home | Current Version | Previous Version | Text Only | Print | Product List | Glossary On
Versions: 1 2 3 4 5 6 7 8 9 10 11 12 13 14 15 16 17 18 19 20 21 22 23 24 25 26 27 28 29 30 31 32 33 34 35 36 37 38 39 40 41 42 43 44 45 46 47 48 49 50
000
NZUS93 KARX 232259
HRRWXR

CURRENT HOURLY OBSERVATIONS ACROSS
MUCH OF THE UPPER MISSISSIPPI VALLEY
NATIONAL WEATHER SERVICE LA CROSSE WI
600 PM CDT TUE SEP 23 2014


...SOUTHEAST MINNESOTA...


CITY           SKY/WX    TMP DP  RH WIND       PRES   REMARKS
ROCHESTER      MOSUNNY   67  50  54 S8        30.20R
ROCHESTER/MAYO FAIR      68  46  44 SE9       30.19S
WINONA         MOSUNNY   70  52  52 S3        30.19F
AUSTIN         CLOUDY    68  50  52 SE9       30.17S
ALBERT LEA     CLOUDY    68  48  49 S9        30.16R
DODGE CENTER   PTSUNNY   68  52  56 SE10      30.18S
PRESTON        MOSUNNY   66  55  67 S7        30.21S
OWATONNA       CLOUDY    70  50  49 SE7       30.15F
FARIBAULT      CLOUDY    73  45  35 SE6       30.15S
$$

...ELSEWHERE IN MINNESOTA...


CITY           SKY/WX    TMP DP  RH WIND       PRES   REMARKS
MINNEAPOLIS    PTSUNNY   72  49  44 S13       30.14S
INTNL FALLS    SUNNY     71  51  49 VRB5      30.07S
DULUTH         MOSUNNY   68  51  54 S6        30.15F
RED WING       SUNNY     72  48  43 S7G16     30.16R
REDWOOD FALLS  CLOUDY    65  56  72 S10       30.10S
MANKATO        CLOUDY    70  46  43 S9        30.13S
WORTHINGTON    CLOUDY    61  50  67 S12G20    30.09F
FAIRMONT       CLOUDY    63  52  67 S10       30.14S
$$

...SOUTHWEST WISCONSIN...


CITY           SKY/WX    TMP DP  RH WIND       PRES   REMARKS
LA CROSSE      MOSUNNY   74  50  42 S10       30.20S
PRAIRIE DU CHI MOSUNNY   72  46  39 SE6       30.21F
BOSCOBEL       PTCLDY    73  48  41 S3        30.23S
LONE ROCK      NOT AVBL
PLATTEVILLE    PTCLDY    72  49  44 SE8       30.25S
FORT MC COY    PTCLDY    70  50  48 SE6       30.23F
VIROQUA        FAIR      71  48  44 S8        30.23F
WIS DELLS      PTCLDY    68  49  49 SW5       30.25S
$$

...ELSEWHERE IN WISCONSIN...


CITY           SKY/WX    TMP DP  RH WIND       PRES   REMARKS
MILWAUKEE      PTCLDY    66  51  58 SE9       30.27S
MADISON        PTCLDY    71  48  43 S7        30.25S
GREEN BAY      CLEAR     70  55  59 S5        30.24S
EAU CLAIRE     NOT AVBL
BLACK RVR FLS  FAIR      70  51  49 S3        30.21S
MEDFORD        CLEAR     67  52  57 S5        30.24R
WAUSAU         CLEAR     69  52  54 S6        30.22F
WIS RAPIDS     CLEAR     67  52  58 SW3       30.25S
MARSHFIELD     CLEAR     67  50  54 S6        30.23S
RICE LAKE      MOSUNNY   66  51  57 S7        30.20S
$$

...NORTHEAST IOWA...


CITY           SKY/WX    TMP DP  RH WIND       PRES   REMARKS
WATERLOO       CLOUDY    68  47  46 S8        30.19S
DUBUQUE        PTCLDY    69  48  47 SE7       30.25S
DECORAH        MOSUNNY   68  48  49 S6        30.21S
MASON CITY     CLOUDY    66  50  56 S9        30.18S
CHARLES CITY   CLOUDY    68  48  49 S9        30.20S
OELWEIN        PTSUNNY   70  50  49 SE8G14    30.22S
$$

...ELSEWHERE IN IOWA...


CITY           SKY/WX    TMP DP  RH WIND       PRES   REMARKS
DES MOINES     CLOUDY    70  53  54 SE9       30.17S
IOWA CITY      PTSUNNY   68  51  54 S7        30.23S
FORT DODGE     CLOUDY    64  54  68 SE9       30.15F
MARSHALLTOWN   CLOUDY    68  49  50 SE8       30.18S
CEDAR RAPIDS   PTSUNNY   68  50  52 S7        30.21F
$$

...NORTHERN ILLINOIS...


CITY           SKY/WX    TMP DP  RH WIND       PRES   REMARKS
CHICAGO-OHARE  PTCLDY    73  49  42 E10       30.27S
DUPAGE         CLEAR     70  49  47 CALM      30.27S
CHICAGO-MIDWAY PTCLDY    72  50  45 E9        30.27S
MOLINE         PTCLDY    71  47  42 S6        30.23S
ROCKFORD       MOCLDY    69  50  50 S3        30.27S
STERLING       PTCLDY    72  46  40 S5        30.25S
PEORIA         PTCLDY    74  49  41 E3        30.24F
$$

NOTE: "FAIR" INDICATES FEW OR NO CLOUDS BELOW 12,000 FEET WITH NO
SIGNIFICANT WEATHER AND/OR OBSTRUCTIONS TO VISIBILITY. WIND
SPEEDS ARE IN MILES-PER-HOUR.



USA.gov is the U.S. government's official web portal to all federal, state and local government web resources and services.